Temperature
-1 -2 -2 -3 -4 -4 -5 -6 -7 -7 -8 -8 -9 -9 -10 -10 -10 -10 -10 -10 -10 -10 -10 -10 -10 -10 -10 -10 -10 -10 -10 -10 -10 -9 -8 -8 -8 -7 -6 -6 -5 -4 -4
-1 -2 -2 -3 -4 -4 -5 -6 -7 -7 -8 -8 -9 -9 -9 -10 -10 -10 -10 -10 -10 -10 -10 -10 -10 -10 -10 -10 -10 -10 -10 -9 -9 -9 -8 -8 -8 -7 -7 -6 -5 -5 -4
-1 -2 -2 -3 -4 -4 -5 -6 -6 -7 -7 -8 -9 -9 -9 -10 -10 -10 -10 -10 -10 -10 -10 -10 -10 -10 -10 -10 -10 -10 -10 -10 -9 -9 -9 -8 -8 -8 -7 -6 -6 -5 -4
-1 -2 -2 -3 -4 -4 -5 -5 -6 -7 -7 -8 -9 -9 -9 -9 -10 -10 -10 -10 -10 -10 -10 -10 -10 -10 -10 -10 -10 -10 -10 -10 -10 -10 -10 -9 -9 -8 -8 -7 -6 -5 -4
-1 -2 -2 -3 -3 -4 -5 -5 -6 -6 -7 -8 -8 -9 -9 -9 -9 -10 -10 -10 -10 -10 -10 -10 -10 -11 -11 -10 -10 -10 -10 -10 -10 -10 -10 -10 -10 -9 -9 -9 -8 -6 -4
-1 -2 -2 -3 -3 -4 -4 -5 -6 -6 -7 -8 -8 -9 -9 -9 -9 -9 -9 -9 -9 -10 -10 -10 -10 -11 -11 -11 -11 -11 -10 -11 -11 -11 -11 -11 -11 -10 -10 -10 -9 -8 -6
-1 -2 -2 -3 -3 -4 -4 -5 -5 -6 -7 -7 -8 -9 -9 -9 -9 -9 -9 -9 -9 -9 -10 -10 -10 -11 -11 -11 -11 -11 -11 -11 -11 -11 -11 -11 -11 -11 -10 -10 -9 -8 -7
-1 -2 -2 -3 -3 -4 -4 -5 -5 -6 -7 -7 -8 -8 -9 -9 -9 -9 -9 -9 -9 -9 -10 -10 -10 -11 -11 -11 -11 -11 -11 -11 -11 -11 -11 -11 -11 -11 -10 -10 -10 -8 -6
-1 -2 -2 -3 -3 -3 -4 -4 -5 -6 -6 -7 -8 -8 -9 -9 -9 -9 -9 -9 -9 -9 -9 -10 -10 -11 -11 -11 -11 -11 -11 -11 -11 -11 -11 -11 -11 -11 -10 -10 -9 -9 -7
-1 -2 -2 -3 -3 -3 -4 -4 -5 -6 -6 -7 -7 -8 -9 -9 -9 -9 -9 -9 -9 -9 -9 -10 -10 -11 -11 -11 -11 -12 -12 -12 -11 -11 -11 -11 -11 -11 -11 -10 -10 -10 -9
-1 -2 -2 -3 -3 -3 -4 -4 -5 -5 -6 -7 -7 -8 -8 -9 -9 -9 -9 -9 -9 -9 -9 -10 -10 -11 -11 -11 -11 -12 -12 -12 -12 -12 -11 -11 -11 -11 -10 -10 -10 -10 -9
-1 -2 -2 -3 -3 -3 -4 -4 -5 -6 -6 -6 -7 -7 -8 -9 -9 -10 -9 -9 -9 -9 -10 -10 -10 -10 -11 -11 -12 -12 -12 -12 -12 -12 -12 -12 -11 -11 -11 -10 -10 -9 -9
-1 -2 -2 -3 -3 -3 -4 -4 -5 -5 -6 -7 -7 -8 -8 -8 -9 -10 -10 -10 -10 -10 -10 -10 -10 -11 -11 -11 -12 -12 -12 -12 -12 -12 -12 -12 -12 -12 -11 -10 -9 -9 -8
-1 -2 -2 -3 -3 -3 -4 -4 -5 -5 -6 -7 -7 -8 -8 -9 -9 -10 -10 -10 -10 -10 -10 -10 -11 -11 -11 -12 -12 -12 -13 -13 -13 -13 -13 -12 -12 -11 -11 -10 -10 -9 -7
-1 -2 -2 -3 -3 -3 -4 -4 -5 -5 -6 -7 -8 -8 -9 -9 -9 -10 -10 -10 -10 -10 -10 -10 -10 -11 -11 -12 -12 -12 -13 -13 -13 -13 -13 -12 -12 -12 -11 -11 -10 -9 -9
-1 -2 -2 -3 -3 -3 -4 -4 -5 -5 -6 -7 -8 -8 -9 -9 -10 -10 -10 -10 -10 -10 -10 -10 -11 -11 -12 -12 -12 -12 -13 -13 -13 -13 -13 -13 -13 -12 -12 -11 -10 -10 -9
-1 -2 -2 -3 -3 -3 -4 -4 -5 -5 -6 -7 -7 -8 -9 -9 -10 -10 -10 -10 -10 -10 -10 -11 -11 -11 -12 -12 -12 -12 -13 -13 -13 -13 -13 -13 -13 -12 -12 -11 -11 -10 -9
-1 -2 -2 -3 -3 -4 -4 -4 -5 -5 -6 -6 -7 -8 -8 -9 -9 -10 -10 -10 -10 -10 -10 -11 -11 -11 -12 -12 -12 -12 -12 -13 -13 -13 -13 -13 -13 -12 -12 -12 -11 -10 -9
-1 -2 -2 -3 -3 -4 -4 -5 -5 -5 -6 -6 -7 -7 -8 -8 -9 -9 -10 -10 -10 -10 -11 -11 -11 -11 -12 -12 -12 -12 -12 -12 -13 -13 -13 -13 -13 -12 -12 -12 -11 -10 -9
-1 -2 -2 -3 -3 -4 -4 -5 -5 -6 -6 -7 -7 -8 -8 -9 -9 -9 -10 -10 -11 -11 -11 -11 -11 -11 -11 -12 -12 -12 -12 -12 -12 -13 -13 -13 -13 -12 -12 -12 -11 -10 -9
-1 -2 -2 -3 -3 -4 -4 -5 -5 -6 -6 -7 -7 -8 -9 -9 -9 -10 -10 -10 -11 -11 -11 -11 -11 -11 -11 -11 -11 -12 -12 -12 -12 -12 -12 -13 -12 -12 -12 -11 -11 -10 -9
-1 -1 -2 -2 -3 -4 -4 -5 -5 -6 -6 -7 -7 -8 -8 -9 -9 -10 -10 -10 -11 -11 -11 -11 -11 -11 -11 -11 -11 -12 -12 -12 -12 -12 -12 -12 -12 -12 -12 -11 -11 -10 -10
-1 -1 -2 -3 -3 -4 -4 -5 -5 -6 -6 -7 -7 -8 -8 -9 -9 -10 -10 -10 -10 -11 -11 -11 -11 -11 -11 -11 -11 -11 -12 -12 -12 -12 -12 -12 -12 -12 -12 -11 -11 -10 -10
-1 -1 -2 -2 -3 -4 -4 -5 -5 -6 -6 -7 -7 -8 -8 -9 -9 -9 -10 -10 -10 -11 -11 -11 -11 -11 -11 -11 -11 -11 -11 -12 -12 -12 -12 -12 -12 -12 -12 -11 -11 -11 -10
-1 -1 -2 -2 -3 -3 -4 -5 -5 -6 -6 -7 -7 -8 -8 -9 -9 -9 -10 -10 -10 -10 -11 -11 -11 -11 -11 -11 -11 -11 -11 -11 -12 -12 -12 -12 -12 -12 -12 -12 -11 -11 -10
-0 -1 -2 -2 -3 -3 -4 -4 -5 -5 -6 -6 -7 -7 -8 -8 -9 -9 -10 -10 -10 -10 -11 -11 -11 -11 -11 -11 -11 -11 -11 -11 -12 -12 -12 -12 -12 -12 -12 -12 -11 -11 -11
Wind_Speed
6 5 5 6 6 6 7 7 7 7 9 8 8 8 9 9 8 9 9 11 11 11 11 11 12 11 9 8 8 8 8 9 11 12 10 10 11 11 11 12 14 12 13
6 5 5 6 6 7 7 7 7 7 9 9 9 9 10 10 9 9 10 11 10 11 11 12 12 11 10 9 9 9 8 9 9 12 11 9 10 10 11 12 11 12 11
6 5 6 6 7 7 7 7 7 7 8 9 8 9 10 10 9 9 9 10 10 10 10 11 11 11 11 9 10 9 8 9 7 9 11 9 8 9 11 11 12 9 12
6 5 6 7 6 7 7 7 7 7 9 9 9 9 10 10 9 10 9 9 9 9 9 10 10 10 10 10 10 8 8 8 8 8 9 9 8 9 9 10 11 10 11
6 6 6 6 6 7 7 8 8 8 10 9 10 10 9 9 9 10 8 9 9 9 9 9 10 14 17 14 12 9 8 7 7 8 9 9 9 10 10 10 12 12 12
6 6 6 6 6 7 8 8 9 9 9 9 9 10 10 10 18 22 16 8 9 9 9 9 10 11 16 19 21 19 16 11 8 7 7 9 10 11 10 11 11 11 7
6 6 6 6 7 8 9 8 9 9 9 9 9 10 10 13 22 22 22 11 9 9 9 9 9 10 14 9 14 17 15 18 16 9 7 8 9 10 10 11 11 12 11
7 7 7 7 8 8 7 8 9 8 8 8 9 10 10 14 22 22 22 11 9 10 9 9 9 9 11 12 8 8 8 9 13 10 7 9 9 9 8 9 10 11 11
8 8 8 8 7 7 8 8 8 8 8 8 9 10 10 13 20 22 22 8 9 10 9 8 8 8 15 17 9 8 9 9 14 18 17 15 17 17 13 7 8 9 8
10 9 8 7 7 7 8 8 7 7 8 8 9 9 10 10 18 22 22 8 9 8 7 7 11 13 15 16 7 7 9 9 9 11 12 13 11 12 15 8 7 8 7
9 7 7 6 7 7 7 6 7 7 8 8 9 8 9 11 17 21 22 10 9 7 7 6 6 15 17 17 14 7 11 11 7 8 8 8 7 6 7 7 6 6 7
8 7 7 7 7 6 6 7 7 6 7 7 7 8 7 9 14 18 22 20 17 8 7 7 8 15 16 16 12 14 17 13 6 7 7 7 8 8 8 8 8 8 8
8 7 7 7 6 6 6 6 5 5 5 6 6 7 8 7 10 19 20 21 20 11 8 14 15 16 14 10 13 16 13 7 6 7 8 8 7 8 8 8 8 8 9
9 8 7 6 6 6 5 5 4 4 5 5 6 7 8 8 8 9 9 10 14 12 8 11 15 14 11 12 11 9 6 6 6 6 7 7 8 8 8 8 8 8 7
9 8 7 6 6 5 5 5 5 5 5 6 5 5 7 8 12 19 15 10 9 10 9 5 4 5 5 5 5 5 5 5 6 6 6 8 9 9 9 8 7 7 5
10 9 7 6 5 5 4 5 9 8 11 13 12 11 9 13 19 19 20 19 19 17 10 6 6 6 6 6 6 6 5 5 5 6 6 7 8 9 9 9 8 7 7
11 9 7 6 5 5 4 4 5 7 9 11 11 12 12 15 17 18 18 17 16 15 7 7 6 6 6 6 6 5 5 5 5 5 6 7 8 8 9 9 9 8 7
12 12 9 6 6 5 5 4 4 4 5 5 8 12 13 14 16 16 15 13 9 9 6 7 7 7 6 6 6 5 5 5 5 5 6 6 7 8 8 9 9 9 8
12 9 8 6 6 5 5 4 4 5 5 5 5 6 10 13 14 14 12 6 7 7 7 7 7 7 6 6 6 6 5 4 5 5 5 6 6 7 8 8 8 12 9
12 16 12 8 6 6 5 5 4 4 4 4 5 5 4 6 5 7 6 6 6 7 7 7 7 7 7 6 6 5 5 4 4 4 5 5 6 6 7 8 9 8 8
11 12 17 9 7 6 6 5 5 4 4 4 4 6 8 3 5 6 6 6 6 7 7 7 7 7 7 6 5 5 5 4 3 3 4 5 6 6 6 7 7 8 7
11 10 10 9 8 7 6 5 5 5 5 5 4 5 9 4 4 5 5 6 5 5 6 6 7 7 6 6 5 5 4 4 3 2 3 4 5 6 6 6 7 7 7
12 12 10 9 8 10 9 6 6 5 5 4 4 3 3 3 4 4 5 5 5 6 6 6 7 7 6 6 5 4 4 3 2 1 2 3 4 5 5 6 7 7 7
14 13 12 11 10 9 8 7 6 6 5 4 3 3 3 3 3 4 4 5 5 6 6 6 7 8 9 7 6 5 3 3 1 1 1 2 3 4 5 5 6 7 6
14 13 12 11 11 10 9 8 7 6 5 4 4 3 2 2 3 3 4 4 5 6 8 8 7 7 9 9 7 5 4 3 2 2 2 2 3 4 4 4 4 5 5
15 14 12 11 10 10 9 8 7 7 6 5 4 3 2 2 3 3 4 4 5 6 7 7 7 9 10 9 7 5 4 3 2 3 2 1 2 3 3 4 5 5 5
Wind_Direction
219 231 253 261 264 268 270 273 277 285 290 289 291 292 294 296 299 304 306 308 308 309 312 316 315 313 314 310 299 289 281 280 284 293 294 297 302 304 307 308 302 298 294
213 227 248 260 265 269 273 278 286 286 289 289 290 291 294 299 299 304 309 310 307 308 312 314 316 318 316 314 314 307 297 296 293 300 303 304 304 309 313 312 313 307 301
206 226 249 261 268 274 280 284 286 284 285 287 287 290 292 293 295 297 297 299 301 303 307 310 313 315 316 316 315 319 317 323 317 309 309 312 314 326 326 321 316 312 309
203 225 247 260 269 277 282 284 283 283 286 285 285 286 287 289 289 288 288 289 293 296 299 303 309 312 312 314 321 321 324 323 325 324 321 324 326 332 334 331 327 325 317
202 225 244 259 271 280 285 286 285 285 289 284 285 286 285 289 289 291 281 288 287 290 295 298 304 318 326 330 330 329 331 327 327 326 326 329 331 335 335 330 324 321 314
202 226 244 260 270 276 280 281 283 283 282 283 285 288 291 295 303 308 310 290 285 285 289 293 300 309 321 329 330 333 337 333 329 323 322 323 320 321 320 322 323 324 319
205 227 241 252 261 265 275 281 281 282 283 285 286 288 288 293 304 308 313 314 293 284 281 285 298 309 319 308 320 331 332 332 330 322 309 303 303 306 309 313 317 314 300
210 226 236 244 253 261 269 275 279 281 284 286 287 288 289 295 307 311 314 317 294 287 281 277 278 283 299 312 319 323 316 318 320 318 295 286 291 291 290 298 305 306 296
214 225 231 237 249 261 270 275 278 284 286 285 287 288 289 296 306 310 314 302 297 293 289 283 288 277 301 317 324 316 314 313 325 326 324 323 324 326 327 325 322 323 316
214 219 225 232 245 257 265 274 280 283 283 287 289 288 290 293 307 314 318 311 305 300 296 293 305 308 312 321 321 311 311 311 322 325 324 325 323 324 331 328 315 314 312
205 210 220 231 242 252 263 272 278 283 288 291 294 296 298 307 317 319 321 327 318 314 310 301 295 313 320 326 331 316 314 330 331 322 319 320 323 322 318 310 297 289 286
192 203 220 233 243 251 258 268 274 284 294 298 302 305 303 310 320 321 326 331 333 324 313 303 298 315 325 330 332 328 334 339 328 324 326 328 329 327 321 312 301 288 270
186 205 222 234 241 245 252 264 277 285 290 297 303 307 311 314 318 323 326 331 333 331 316 323 325 328 332 330 327 333 341 333 323 330 330 327 322 317 316 315 309 301 289
191 207 219 229 240 248 253 253 259 270 280 289 297 303 308 311 310 313 314 319 327 324 317 322 327 329 331 331 334 337 334 327 334 329 326 323 323 325 326 327 324 324 316
194 206 215 221 229 245 253 253 261 245 258 278 269 277 299 305 310 323 330 327 326 321 330 323 318 320 322 322 326 326 327 332 337 329 328 331 333 335 333 332 327 328 325
196 205 208 210 220 231 249 274 285 285 288 292 294 297 299 307 317 326 330 332 334 338 343 331 325 326 325 326 329 329 329 331 331 331 331 333 336 335 334 334 336 333 330
195 197 200 203 212 224 233 253 281 301 305 308 307 309 311 319 325 328 332 337 340 345 345 329 325 324 321 322 321 321 323 325 326 329 332 332 335 336 337 340 341 339 335
192 201 200 199 206 214 221 234 251 273 297 303 312 316 321 328 330 332 339 343 339 340 331 327 326 323 318 320 319 318 318 322 327 330 330 331 334 337 340 341 341 341 339
190 194 196 193 202 209 213 226 243 259 272 287 299 313 326 331 334 337 344 341 327 327 327 325 322 321 319 316 316 315 314 315 322 326 327 329 333 336 339 340 341 344 347
191 197 192 192 199 205 209 220 236 250 265 279 289 293 312 328 327 330 334 327 325 324 324 322 321 320 320 315 313 314 315 313 319 326 327 329 332 336 338 340 343 343 342
184 193 197 195 197 201 204 213 224 234 249 266 274 292 318 324 315 317 324 327 326 324 324 323 320 319 319 316 313 314 314 312 314 323 329 330 334 338 338 340 342 344 344
179 183 186 190 195 200 204 207 215 226 240 257 272 295 316 321 309 312 319 321 322 321 320 318 316 316 317 317 316 316 316 313 314 324 331 335 338 340 342 346 349 349 353
177 179 184 189 192 204 209 206 211 218 232 245 262 277 297 301 304 309 314 318 319 320 322 321 320 319 321 323 322 316 317 318 306 322 344 346 346 345 347 349 352 355 0
179 181 183 187 190 195 199 203 208 213 220 232 245 260 275 287 296 306 312 316 320 322 323 323 321 321 322 326 327 323 317 331 16 33 20 3 354 349 350 353 355 358 3
180 182 184 186 189 193 196 200 202 205 212 222 229 243 266 278 290 301 309 313 320 322 323 323 321 324 326 326 324 322 327 354 43 73 50 24 3 355 353 356 0 6 14
181 182 184 185 187 189 192 195 198 198 204 212 215 223 241 257 277 292 303 311 321 321 320 321 320 323 325 328 325 330 342 1 63 73 76 43 19 11 10 11 11 21 26
Height
1527 1526 1524 1522 1519 1516 1513 1510 1506 1502 1498 1494 1490 1486 1481 1477 1473 1468 1463 1458 1453 1447 1442 1436 1430 1425 1420 1415 1410 1406 1402 1398 1393 1387 1384 1381 1378 1375 1373 1371 1369 1367 1366
1523 1522 1520 1518 1515 1512 1509 1506 1502 1499 1495 1490 1486 1482 1477 1473 1469 1464 1459 1455 1450 1444 1439 1433 1428 1423 1418 1413 1408 1403 1399 1395 1391 1385 1380 1377 1374 1372 1368 1365 1363 1361 1360
1518 1517 1516 1513 1511 1508 1505 1502 1498 1494 1490 1486 1482 1478 1474 1469 1465 1461 1456 1451 1447 1442 1436 1431 1426 1421 1416 1411 1406 1401 1397 1392 1388 1384 1378 1374 1371 1368 1364 1361 1358 1355 1354
1514 1513 1511 1509 1507 1504 1501 1498 1494 1490 1486 1482 1478 1474 1470 1466 1461 1457 1452 1448 1443 1439 1434 1429 1424 1419 1415 1410 1405 1400 1395 1390 1386 1382 1377 1372 1369 1365 1361 1357 1352 1350 1349
1509 1508 1506 1505 1502 1500 1497 1493 1490 1486 1482 1478 1474 1470 1466 1462 1458 1454 1449 1444 1440 1435 1430 1426 1421 1417 1413 1409 1404 1399 1394 1389 1384 1380 1375 1370 1366 1362 1359 1355 1351 1346 1344
1504 1503 1502 1500 1498 1495 1492 1489 1486 1482 1478 1474 1470 1466 1462 1458 1454 1451 1446 1441 1436 1431 1426 1421 1417 1413 1409 1405 1401 1397 1393 1388 1383 1378 1374 1369 1365 1361 1357 1354 1350 1345 1341
1498 1498 1497 1495 1493 1491 1488 1485 1481 1478 1474 1470 1466 1462 1458 1454 1450 1447 1443 1438 1432 1427 1422 1417 1413 1409 1405 1401 1397 1393 1389 1386 1382 1378 1373 1368 1364 1360 1356 1351 1348 1344 1341
1493 1493 1492 1491 1489 1487 1484 1481 1477 1474 1470 1466 1462 1458 1454 1450 1447 1443 1439 1434 1428 1423 1418 1414 1409 1405 1401 1398 1393 1389 1385 1381 1378 1374 1371 1366 1362 1359 1355 1351 1346 1342 1338
1488 1488 1487 1486 1484 1482 1480 1477 1474 1470 1466 1463 1459 1455 1450 1446 1443 1439 1435 1429 1424 1419 1414 1410 1406 1402 1398 1395 1390 1385 1381 1377 1374 1371 1367 1364 1360 1356 1353 1348 1344 1340 1335
1482 1482 1482 1481 1480 1478 1475 1473 1470 1466 1463 1459 1455 1451 1447 1443 1439 1436 1431 1426 1420 1415 1411 1407 1403 1399 1395 1392 1388 1383 1378 1374 1370 1366 1362 1359 1355 1352 1349 1346 1342 1339 1335
1477 1477 1477 1476 1475 1473 1471 1469 1466 1462 1459 1455 1451 1447 1444 1440 1435 1432 1428 1423 1417 1412 1408 1403 1399 1396 1392 1389 1385 1381 1377 1373 1367 1363 1359 1355 1352 1349 1345 1342 1340 1337 1334
1471 1471 1472 1471 1470 1469 1467 1465 1462 1459 1455 1452 1448 1443 1440 1436 1432 1428 1424 1420 1415 1410 1405 1400 1396 1393 1389 1386 1382 1379 1375 1370 1365 1361 1357 1353 1349 1345 1342 1339 1336 1334 1331
1465 1466 1466 1466 1465 1464 1462 1460 1458 1455 1452 1448 1444 1440 1436 1432 1428 1424 1420 1416 1412 1407 1402 1398 1394 1391 1387 1383 1380 1376 1372 1368 1363 1359 1355 1351 1348 1344 1340 1336 1333 1331 1328
1459 1460 1461 1461 1461 1460 1458 1456 1454 1451 1448 1445 1441 1437 1433 1428 1424 1420 1417 1412 1408 1404 1399 1395 1391 1388 1384 1381 1377 1374 1370 1366 1363 1359 1354 1350 1346 1342 1338 1334 1331 1328 1326
1453 1454 1455 1456 1455 1455 1454 1453 1450 1448 1446 1442 1438 1435 1430 1425 1422 1419 1415 1410 1406 1401 1397 1393 1389 1385 1382 1378 1375 1372 1368 1365 1361 1357 1353 1349 1345 1341 1337 1334 1330 1327 1325
1446 1448 1449 1450 1450 1450 1449 1449 1447 1445 1442 1439 1436 1433 1428 1425 1420 1416 1412 1408 1403 1400 1395 1391 1387 1384 1380 1377 1374 1370 1367 1364 1360 1357 1353 1349 1345 1341 1337 1334 1330 1328 1325
1439 1441 1443 1444 1445 1445 1445 1444 1443 1442 1439 1436 1433 1430 1426 1422 1418 1414 1410 1405 1401 1397 1393 1389 1386 1382 1379 1376 1373 1369 1366 1363 1360 1356 1353 1349 1345 1341 1338 1334 1331 1328 1326
1432 1435 1437 1438 1440 1440 1440 1439 1438 1437 1435 1433 1430 1427 1423 1420 1415 1411 1407 1403 1399 1395 1392 1388 1385 1381 1378 1375 1372 1369 1365 1362 1359 1356 1353 1349 1346 1342 1338 1335 1332 1329 1327
1425 1428 1430 1432 1434 1435 1435 1435 1434 1433 1431 1429 1426 1424 1421 1417 1413 1409 1405 1401 1397 1394 1390 1387 1383 1380 1377 1374 1371 1368 1365 1362 1359 1356 1353 1349 1346 1343 1339 1336 1333 1331 1328
1418 1421 1424 1427 1428 1429 1430 1430 1430 1429 1427 1425 1423 1420 1417 1414 1410 1406 1403 1399 1396 1392 1389 1385 1382 1379 1376 1373 1370 1367 1364 1361 1358 1356 1353 1350 1347 1344 1341 1337 1335 1332 1330
1410 1414 1418 1420 1422 1424 1425 1425 1425 1425 1424 1422 1420 1418 1415 1411 1408 1404 1401 1398 1394 1391 1387 1384 1381 1378 1375 1372 1369 1366 1363 1361 1358 1356 1353 1351 1348 1345 1342 1339 1337 1334 1332
1403 1407 1410 1413 1416 1418 1419 1421 1421 1421 1420 1418 1417 1415 1412 1409 1406 1402 1399 1396 1393 1390 1386 1383 1380 1377 1374 1371 1368 1365 1363 1361 1358 1356 1354 1352 1349 1347 1344 1341 1339 1337 1335
1396 1400 1404 1407 1410 1412 1414 1415 1416 1416 1416 1415 1413 1411 1409 1406 1403 1400 1397 1394 1391 1388 1385 1382 1379 1376 1373 1370 1368 1365 1363 1361 1359 1357 1355 1353 1351 1348 1346 1344 1342 1340 1338
1388 1393 1397 1400 1403 1406 1408 1410 1411 1411 1411 1411 1410 1408 1406 1403 1401 1398 1395 1393 1390 1387 1384 1381 1378 1375 1372 1370 1367 1365 1363 1361 1359 1357 1355 1354 1352 1350 1348 1346 1345 1343 1342
1380 1385 1389 1393 1397 1400 1402 1404 1406 1407 1407 1407 1406 1404 1403 1400 1398 1396 1393 1391 1388 1385 1383 1380 1377 1374 1372 1369 1367 1364 1362 1361 1359 1358 1356 1355 1354 1352 1350 1349 1347 1346 1345
1372 1377 1382 1387 1390 1394 1396 1398 1400 1401 1402 1403 1402 1401 1399 1398 1396 1394 1391 1389 1386 1384 1381 1379 1376 1373 1371 1368 1366 1364 1363 1361 1360 1359 1358 1356 1355 1354 1353 1351 1350 1349 1349